Theta_e
323 319 314 310 310 308 310 306 298 300 299 294 293 295 296 304 304 303 304 306 304 307 316 318 315 312 309 312 312 313 315 311 309 301 300 309 330 330 327 327 328 329 329 329 329 333 332 337 337 337 337 337 337 336 337 337 337 336 335 334 334 333 333 333 332 332 332 332 331 331 331 332 331 331 331 330 331 330 331 329 329 328 326 328 328 328 328 327 326 328 328 327 327 326 327 326 325
319 312 307 309 308 312 304 303 295 293 293 291 294 296 297 300 304 302 301 305 307 308 316 316 315 318 319 319 319 318 316 318 319 316 320 327 331 329 328 329 329 328 329 329 329 331 331 334 338 337 337 337 337 337 337 336 336 336 335 335 333 333 333 332 331 333 333 332 331 331 331 331 331 331 330 331 331 330 330 329 327 327 327 326 327 327 327 327 327 327 326 326 326 326 326 325 325
311 305 304 311 310 307 304 302 294 288 290 289 291 296 300 299 300 303 305 305 309 315 316 316 317 317 316 315 313 312 307 320 321 322 325 329 324 326 328 329 329 329 329 329 330 331 331 334 339 337 337 337 337 337 336 335 334 335 335 334 334 334 333 332 332 332 333 333 332 330 331 330 330 330 331 331 329 328 326 327 327 326 325 326 326 326 326 326 326 326 326 325 325 326 325 325 324
302 305 303 307 305 301 297 295 290 290 288 288 289 294 297 299 300 302 306 306 308 315 315 314 312 316 314 309 311 317 314 318 323 324 322 325 326 329 328 329 330 330 329 330 330 330 330 336 338 338 337 337 336 336 335 334 334 334 334 333 334 334 333 332 332 331 332 332 331 331 331 330 330 331 330 329 328 326 327 326 325 325 325 325 325 326 326 325 325 324 325 325 325 325 324 324 324
299 304 307 304 301 298 297 293 289 290 289 289 288 292 297 300 301 302 304 306 306 314 314 314 311 315 317 314 316 309 310 321 325 328 326 328 331 330 329 330 330 329 328 329 330 329 330 338 337 337 337 336 336 336 335 334 334 333 333 332 333 332 333 332 331 331 331 330 331 331 331 331 329 330 329 327 326 327 325 324 325 325 325 324 325 325 324 324 324 324 324 324 324 324 324 324 324
297 303 308 309 303 303 297 291 289 289 292 293 293 294 297 299 299 299 301 303 304 313 315 313 311 311 312 315 318 313 318 314 324 327 327 327 330 331 330 331 330 328 328 329 330 329 331 337 337 338 338 336 336 336 334 334 334 333 334 333 333 333 332 331 331 330 329 330 331 331 331 329 329 329 328 327 326 325 324 324 324 324 324 324 324 324 324 324 324 324 323 324 324 323 323 323 322
298 302 302 304 301 299 291 286 287 289 294 297 296 296 297 298 298 299 300 301 304 308 313 313 314 312 309 314 318 320 321 325 326 327 330 330 330 330 330 330 330 328 328 329 329 330 331 337 337 338 336 336 337 336 334 335 333 333 334 333 332 333 332 331 331 330 330 330 330 330 330 329 328 328 327 326 325 325 324 324 324 323 323 324 324 324 324 324 323 324 323 322 324 324 323 323 322
304 303 299 294 291 294 289 286 288 288 292 297 298 298 299 296 297 298 298 300 300 304 309 311 313 311 308 318 310 318 321 325 326 330 331 330 330 330 331 330 328 328 328 328 329 330 336 337 337 337 337 336 337 335 334 333 333 332 332 333 332 332 332 331 330 330 329 330 330 330 329 329 328 327 326 325 325 324 324 324 323 323 323 323 324 324 324 323 322 323 323 323 323 323 323 322 321
298 301 299 296 292 288 285 288 288 291 293 296 299 302 304 297 296 297 298 300 301 304 306 310 313 307 307 312 310 314 318 324 329 329 330 330 329 330 330 330 328 328 328 328 329 331 333 337 336 336 336 336 335 335 333 332 332 331 331 332 332 332 331 329 330 329 329 329 329 329 329 328 327 327 326 325 324 324 324 323 323 323 323 323 323 323 322 323 322 322 323 322 322 323 322 321 320
297 299 294 291 288 288 282 285 286 288 293 295 296 297 296 295 295 298 298 297 300 302 304 309 312 309 311 310 310 315 317 326 328 327 329 329 329 330 330 330 329 328 328 328 329 331 332 336 335 335 335 336 334 334 333 333 332 332 331 331 331 331 330 330 329 329 329 329 328 328 328 327 328 326 326 324 324 324 323 323 322 323 323 322 322 323 323 323 322 322 322 322 322 322 321 320 319
289 291 294 291 284 283 284 283 284 289 290 293 293 295 296 295 297 297 296 296 299 301 306 305 309 307 310 310 312 317 321 327 326 324 327 328 329 329 329 330 330 329 328 328 329 331 331 332 335 334 334 335 335 335 333 333 332 332 331 331 331 331 330 329 330 330 329 328 328 327 328 328 327 326 325 324 323 323 322 322 322 322 322 322 322 322 322 322 322 322 321 322 322 321 320 319 319
289 287 288 284 282 283 281 283 284 287 289 289 293 295 294 295 296 294 295 294 296 299 302 300 301 302 308 309 309 316 326 327 325 326 328 329 328 329 329 329 330 329 329 329 330 330 330 331 332 334 333 333 333 334 333 332 332 331 331 331 330 330 330 330 330 330 329 329 328 328 328 327 327 325 324 323 322 322 321 321 322 321 321 321 321 321 321 321 321 321 321 321 321 320 319 319 318
287 286 283 283 280 284 282 284 286 288 287 287 290 294 294 294 293 294 295 294 295 297 299 300 301 306 306 308 311 319 323 327 326 327 327 328 328 329 329 329 329 329 329 329 329 329 329 330 331 331 331 333 332 332 332 332 332 331 330 330 330 331 330 330 329 329 329 328 327 328 327 326 325 324 323 323 322 321 321 321 321 321 321 321 320 321 321 321 321 320 320 320 319 319 319 318 316
288 287 286 281 281 281 282 281 280 283 281 285 290 292 292 294 295 294 295 291 292 297 300 302 306 312 310 312 311 314 322 329 328 327 328 328 328 328 328 328 328 329 329 329 328 329 329 329 330 330 330 330 330 331 330 330 331 331 331 330 329 330 330 329 329 328 328 327 327 327 327 326 324 323 323 323 322 321 321 320 320 320 320 320 320 321 322 321 320 320 319 319 318 318 318 317 316
293 288 283 282 282 280 280 284 283 281 282 286 292 290 290 294 293 293 293 291 292 297 300 301 310 311 306 308 307 311 321 328 328 328 328 328 328 328 328 328 328 328 329 329 329 329 328 329 329 328 329 328 327 327 327 328 329 330 330 330 330 329 329 329 328 328 328 327 326 326 325 325 323 323 323 325 322 320 320 320 320 319 320 320 319 320 321 321 320 319 318 318 317 317 316 313 312
290 287 286 285 280 281 280 284 283 283 284 288 291 289 288 290 293 291 293 295 295 297 294 293 302 308 310 310 310 316 321 328 329 328 327 327 327 327 327 327 327 328 328 328 328 329 329 329 328 328 327 326 325 325 325 326 327 327 328 328 329 328 328 328 327 327 326 326 326 326 325 322 323 322 323 321 322 321 320 320 320 319 318 318 319 320 320 319 319 318 318 317 317 313 311 309 308
287 288 285 279 279 280 280 284 283 282 284 286 288 288 287 287 289 292 295 294 293 294 292 293 296 312 311 312 317 322 324 329 327 327 326 325 325 325 326 326 326 326 327 327 327 327 328 328 327 327 325 324 323 323 324 324 325 326 326 327 327 327 326 326 324 324 323 322 320 319 316 311 312 314 316 318 322 317 320 321 320 320 318 317 317 318 318 318 319 318 317 316 312 310 308 307 306
286 284 280 280 278 281 282 284 285 287 287 287 288 288 287 286 288 289 292 294 290 292 292 293 296 306 316 317 321 323 325 327 326 324 323 323 323 322 323 324 325 323 325 325 326 327 327 327 326 325 324 323 322 322 323 323 324 324 322 323 322 322 322 322 318 316 316 314 315 311 309 309 309 310 312 315 313 315 317 319 319 319 317 317 317 317 318 317 317 317 315 314 310 307 303 293 296
281 279 279 279 278 282 285 287 285 287 286 286 287 285 287 287 287 289 289 290 288 290 292 292 292 295 301 307 316 322 327 326 322 322 320 321 322 321 322 323 323 324 323 324 325 326 326 326 325 324 322 322 321 320 319 319 319 319 319 318 318 318 316 314 312 312 311 310 308 308 307 307 309 310 311 313 313 317 316 318 319 318 318 316 316 315 315 315 315 314 313 309 306 301 289 287 286
284 282 280 277 280 282 283 285 287 287 288 287 286 286 285 288 288 291 288 286 288 288 290 292 290 292 295 298 308 320 325 323 320 320 321 321 322 322 322 322 323 323 323 324 324 326 326 325 324 323 322 321 320 318 316 315 315 315 315 314 312 311 310 309 309 309 309 308 307 306 306 307 307 307 311 310 309 306 311 314 313 311 311 311 309 310 314 313 312 310 307 303 297 292 287 287 286
285 283 281 282 282 283 285 284 286 287 288 287 285 285 286 288 288 289 288 287 289 290 291 291 292 293 293 297 305 316 320 322 318 320 320 321 322 323 323 323 323 324 324 325 324 324 325 324 323 322 321 320 319 317 314 313 313 312 311 310 309 308 307 307 307 307 307 307 306 306 305 305 303 302 302 301 300 302 301 300 300 298 297 297 301 293 293 294 292 289 290 291 287 288 287 286 286
285 284 282 283 282 284 286 285 286 288 287 286 284 285 288 287 288 287 288 286 288 290 293 291 291 292 293 298 308 307 314 319 319 319 319 319 319 320 321 322 323 324 324 323 323 323 324 324 323 321 320 319 317 316 314 313 312 311 309 308 308 306 306 305 305 305 305 305 305 305 305 303 301 300 300 299 297 298 298 297 296 295 293 292 294 290 289 289 289 288 288 288 287 287 287 287 289
285 282 284 283 283 285 286 287 287 288 288 286 286 288 288 288 288 287 287 288 292 295 295 294 292 292 294 298 298 300 303 306 313 319 319 318 318 319 321 322 321 321 322 323 324 323 323 323 322 321 319 318 316 314 313 312 310 309 308 308 306 304 304 304 304 304 304 304 305 305 304 302 300 299 298 297 295 296 295 294 293 293 292 291 292 290 289 289 289 288 288 287 287 287 286 286 285
285 283 283 288 284 286 287 288 288 286 286 288 288 288 288 288 287 287 287 291 293 295 295 293 293 293 293 292 293 295 297 299 300 305 315 318 319 319 320 321 322 322 322 323 323 323 322 322 321 320 318 316 314 314 313 311 309 308 308 309 306 305 304 304 303 303 303 304 304 304 304 302 301 299 297 295 293 294 293 292 292 291 291 290 291 290 289 288 288 288 288 287 287 287 286 286 285
283 283 284 286 286 287 287 288 288 288 288 289 288 287 289 288 288 287 289 293 294 294 294 294 293 292 292 291 292 293 293 295 296 298 304 314 320 319 319 322 322 321 321 322 323 322 322 322 320 319 317 315 314 313 311 310 310 308 308 306 305 306 303 302 301 302 302 302 302 303 303 301 300 298 296 294 293 293 292 292 292 291 291 290 291 289 290 289 288 288 288 287 287 287 286 286 285
285 285 285 285 287 289 289 288 288 288 288 288 287 287 289 289 288 286 291 294 294 293 292 291 291 291 292 292 292 292 292 293 294 295 297 303 313 318 320 319 321 321 322 322 322 322 322 321 319 318 316 314 313 312 310 310 309 309 307 306 305 303 300 300 301 301 300 301 300 301 302 300 299 297 295 293 294 292 291 292 292 291 291 290 290 289 289 289 288 287 287 287 287 286 287 289 285
286 285 285 286 289 287 287 285 285 286 287 286 286 287 288 288 288 287 289 291 292 291 290 289 290 291 292 292 293 293 292 293 294 295 296 296 303 309 312 315 317 320 321 321 322 322 322 320 318 317 316 314 313 312 311 310 309 308 307 306 303 300 299 300 299 299 299 299 299 299 299 299 296 295 293 292 292 291 291 291 291 291 290 290 290 289 289 289 288 288 288 287 287 287 287 287 285
287 286 286 286 285 286 286 285 285 285 287 286 287 287 287 286 286 288 293 293 291 291 291 291 289 291 292 292 292 293 293 294 294 293 294 295 295 301 307 311 312 312 317 320 321 322 321 319 318 317 315 314 313 312 311 309 309 308 306 304 302 300 299 298 297 298 298 297 297 297 297 295 296 293 293 292 292 291 290 291 290 291 290 290 290 290 290 289 288 287 287 287 287 288 286 285 285
286 285 285 283 283 282 283 285 286 285 286 286 286 286 284 284 284 291 293 292 291 289 290 291 291 291 291 292 292 292 293 293 293 292 294 295 296 297 302 309 313 311 313 314 319 321 320 319 317 316 315 313 313 312 310 309 308 306 304 302 300 300 299 297 297 296 296 296 296 296 295 295 295 293 292 293 294 290 290 291 291 292 291 291 291 290 290 289 288 288 288 288 287 287 286 286 286
287 284 283 283 280 279 287 285 285 286 286 286 287 280 278 282 287 291 292 291 290 290 290 291 291 291 291 291 292 292 293 292 292 293 294 294 295 296 299 303 310 311 310 312 316 318 320 319 318 316 313 312 312 311 310 308 307 305 303 301 300 299 299 298 297 296 297 296 296 295 295 296 294 293 293 293 292 291 291 291 291 291 290 291 292 291 289 288 288 288 288 288 291 288 286 285 284
285 283 279 278 278 276 282 283 284 284 286 287 288 279 282 284 287 291 291 290 289 288 289 290 291 292 292 291 291 292 293 293 294 294 294 295 295 296 298 302 305 308 308 310 310 316 317 317 316 315 313 312 311 309 308 307 305 304 301 300 299 299 299 298 296 297 296 296 295 295 295 296 294 294 294 293 292 291 291 291 291 290 291 292 291 291 290 289 288 288 288 288 286 286 285 287 284
277 277 274 275 277 277 281 286 285 283 286 287 287 280 282 285 288 291 292 290 288 289 290 290 291 291 292 292 292 292 293 294 294 295 295 295 296 295 298 302 304 305 306 308 310 312 317 316 315 313 312 311 309 308 307 305 304 301 300 300 298 299 299 298 298 296 296 297 296 295 296 296 295 295 294 293 292 291 291 290 290 291 291 291 291 291 291 290 288 288 287 287 286 285 287 285 284
276 277 277 276 277 278 280 283 283 285 285 287 286 281 283 284 287 289 291 290 290 289 289 290 290 290 291 291 292 292 293 294 295 295 295 295 296 296 298 301 303 304 305 307 308 309 315 316 314 312 310 308 307 306 305 303 302 301 299 298 298 298 297 297 297 298 296 296 296 296 296 296 295 295 294 293 292 291 291 290 291 291 292 291 291 291 291 291 289 289 287 288 287 286 286 284 283
272 276 276 276 277 278 278 280 283 283 285 282 284 281 283 286 289 290 291 291 288 288 288 289 290 290 291 291 291 292 292 293 294 295 296 295 295 296 298 302 303 304 306 308 310 312 314 315 314 312 310 308 305 303 302 301 301 300 298 298 298 297 297 297 297 297 296 296 296 295 296 296 295 294 293 293 292 292 291 291 291 291 292 291 291 291 291 291 291 290 288 288 288 288 285 285 284
273 276 276 277 277 278 279 278 279 284 283 282 282 281 283 285 287 288 289 290 287 287 288 289 289 290 290 291 291 291 292 292 294 295 296 296 295 295 296 300 303 303 304 308 309 311 312 312 310 309 306 303 302 301 301 300 299 298 297 297 296 296 296 297 297 296 296 296 296 296 296 296 296 294 294 294 293 293 292 292 291 291 291 291 291 291 291 291 291 290 289 288 289 287 286 286 285
279 279 278 278 277 278 278 281 283 284 281 282 281 281 283 285 286 288 289 288 286 287 288 288 288 289 289 290 290 291 291 292 294 295 296 295 295 295 295 298 303 304 305 307 308 310 310 309 308 306 303 301 300 300 299 298 298 297 295 295 295 295 295 296 297 297 297 296 297 297 296 295 296 295 294 294 294 293 293 293 292 292 291 291 290 290 290 291 291 290 289 288 288 288 287 286 286
280 279 278 279 279 279 281 281 282 283 282 281 281 281 282 283 285 286 288 288 287 286 286 287 287 288 289 289 290 290 291 292 295 294 294 294 294 295 297 298 301 304 306 308 309 310 309 308 305 302 302 300 299 298 298 297 296 295 295 294 293 293 294 295 296 296 297 297 297 297 296 297 296 295 295 294 294 295 293 294 293 293 294 293 292 291 291 291 291 290 290 290 288 286 285 285 285
281 279 278 278 277 276 280 280 281 282 282 280 283 281 282 283 285 286 287 285 285 286 286 286 287 288 289 289 289 290 292 293 293 293 294 293 293 295 298 301 305 307 309 311 310 308 307 305 304 302 301 301 300 299 298 298 297 296 295 294 294 293 294 294 294 295 296 297 297 297 297 296 295 295 295 294 294 293 293 293 292 292 293 293 293 292 292 293 291 290 290 288 286 285 284 284 285
278 278 276 275 276 276 280 279 281 282 282 281 280 279 282 283 284 285 284 285 286 287 286 287 287 288 289 290 290 290 291 292 292 293 293 293 293 296 301 306 309 309 309 310 310 307 306 304 303 301 301 301 300 300 299 298 297 298 297 295 295 294 296 296 295 296 296 296 297 297 297 296 295 294 294 294 294 294 293 294 293 293 293 293 292 291 291 291 290 290 290 289 286 284 284 284 284
277 276 275 274 276 277 276 280 281 283 282 279 280 279 281 282 281 282 284 284 285 286 287 287 288 289 289 290 291 291 290 291 291 292 292 292 293 297 302 308 310 310 308 309 308 306 305 305 303 301 300 301 300 300 299 298 298 298 297 296 296 295 294 295 295 295 295 295 295 296 296 296 295 295 294 294 294 295 295 294 294 294 294 294 293 291 290 290 290 289 288 288 286 283 282 283 284
276 277 276 275 275 276 276 279 281 283 279 281 281 279 277 277 280 281 283 283 284 287 287 288 289 289 290 290 290 290 290 291 291 292 292 293 294 298 302 309 311 308 307 307 306 306 305 304 302 301 300 300 300 300 298 298 297 296 295 295 295 294 294 293 292 292 293 295 294 294 295 296 296 294 295 295 295 295 295 295 294 294 294 294 294 293 291 290 289 289 287 286 286 285 283 282 284
277 277 279 278 279 277 278 279 280 278 273 279 279 273 269 276 278 280 283 283 286 287 286 288 290 290 290 290 291 291 291 291 291 292 292 292 293 296 302 309 309 308 307 306 307 306 305 303 301 300 300 300 299 299 298 297 296 294 293 292 290 291 290 290 290 290 291 292 292 294 294 295 295 295 293 293 294 294 293 294 294 294 293 293 292 291 290 290 289 288 287 287 285 285 285 283 283
275 278 278 279 278 278 278 278 278 272 270 277 280 272 272 277 279 279 281 281 284 286 285 287 288 290 290 291 291 291 291 291 291 291 292 292 293 297 301 307 308 307 307 307 306 306 305 303 302 301 300 299 299 298 298 297 295 295 294 293 293 292 291 291 293 293 292 293 293 292 293 294 294 294 293 292 292 293 292 292 293 294 294 292 292 290 290 290 289 289 288 287 286 287 285 282 283
276 278 279 280 280 279 279 277 278 278 279 279 276 274 272 274 279 280 280 281 282 283 285 286 288 289 290 291 291 291 291 291 291 292 292 293 293 297 301 308 309 308 307 306 305 305 304 302 301 300 300 299 298 298 297 297 296 295 295 295 294 293 292 292 293 293 293 293 292 292 292 293 294 294 294 292 292 292 292 291 292 292 292 291 292 290 290 289 289 289 289 288 288 286 285 283 282
279 279 280 280 280 280 278 277 278 278 275 271 273 275 271 272 279 281 280 280 281 281 283 285 288 289 291 291 292 292 292 292 292 292 292 293 293 297 302 308 310 308 306 305 305 304 303 301 301 300 300 299 298 298 297 297 297 296 296 295 294 295 294 293 293 293 292 292 291 291 292 292 293 293 293 293 293 293 293 292 291 291 291 290 291 290 289 289 289 288 288 288 287 287 285 284 283
280 281 282 281 279 279 280 278 275 273 272 265 270 277 270 273 276 279 278 279 280 283 284 286 289 291 291 291 291 292 292 292 292 292 294 295 295 296 303 309 309 307 306 305 305 304 302 301 300 299 299 299 298 297 298 297 297 297 296 295 295 294 294 293 292 291 291 291 290 290 291 291 292 292 293 293 293 293 293 293 292 291 290 291 291 289 289 289 288 288 288 288 288 287 285 286 284
282 280 278 278 275 276 276 275 274 267 265 265 272 275 273 269 275 278 279 283 284 284 285 288 291 291 292 292 291 292 292 292 292 294 296 296 296 296 303 308 308 307 305 305 304 302 301 300 299 299 298 298 298 297 297 297 297 297 296 296 295 294 293 292 291 290 290 290 289 290 290 290 291 291 292 292 293 293 292 293 292 291 290 291 291 289 289 289 288 288 287 287 287 287 286 285 287
280 275 274 274 268 272 269 261 262 266 263 264 274 276 274 267 274 278 281 284 285 285 285 288 290 290 291 291 292 293 293 293 293 295 296 296 295 297 304 307 306 305 304 303 302 301 300 300 299 298 298 297 297 297 297 297 297 297 297 297 296 295 293 292 291 290 290 290 290 289 290 290 290 291 291 291 291 292 292 292 292 291 290 290 289 289 289 288 288 288 288 288 286 286 285 285 283
281 278 276 271 265 266 266 263 268 262 268 272 272 274 270 270 277 283 284 284 285 287 289 290 290 290 290 291 292 293 294 293 293 295 295 295 295 299 304 304 304 303 302 302 301 300 300 299 299 298 297 297 297 297 296 297 297 297 297 297 296 295 294 293 292 291 291 290 290 289 289 288 289 289 290 290 291 291 292 291 290 290 290 290 289 289 288 288 287 287 286 286 285 284 284 283 283
280 275 270 267 266 261 260 261 260 266 269 268 267 271 272 277 280 281 283 285 288 289 291 292 292 290 291 291 292 293 294 293 294 295 295 294 296 301 304 303 302 302 302 301 300 299 299 299 298 298 297 297 297 297 297 296 296 297 298 298 297 296 294 294 293 292 292 292 291 290 289 289 289 289 289 289 291 291 291 291 290 290 290 289 289 288 288 287 286 286 286 285 284 284 283 283 282
275 275 274 267 263 264 264 261 264 266 271 274 271 270 269 274 280 284 286 287 289 291 292 292 292 291 291 292 292 293 294 295 295 296 296 296 299 304 303 303 302 302 301 300 299 299 298 298 298 297 296 297 296 296 297 296 296 297 298 298 297 296 295 295 294 294 293 292 292 291 291 290 290 290 290 290 291 291 291 290 289 289 289 289 288 288 288 287 286 286 285 284 284 283 282 282 281
277 277 274 270 268 267 268 265 264 265 270 270 270 270 270 278 282 285 287 289 291 291 290 290 290 290 290 290 290 291 294 294 295 296 298 300 302 303 302 302 302 301 300 300 299 299 298 298 298 298 297 296 296 296 296 297 297 298 298 298 297 296 296 296 295 294 294 294 293 292 291 291 291 291 291 290 290 290 290 289 289 288 289 289 288 287 287 286 286 285 285 284 283 284 282 282 281
275 275 269 273 275 273 266 267 266 267 266 268 268 272 275 280 282 283 286 290 289 288 288 288 288 288 289 288 289 291 293 294 297 298 299 301 301 302 302 301 301 300 300 299 299 299 298 298 297 297 297 297 296 296 297 297 297 298 298 298 297 296 296 295 294 294 294 294 294 293 292 292 292 291 290 290 290 290 289 289 288 288 288 288 287 287 286 286 286 285 284 284 283 283 283 281 280
274 269 273 277 275 269 268 264 262 264 264 269 269 272 275 276 277 284 286 287 287 286 287 287 287 288 288 288 289 291 293 296 297 298 300 301 300 300 301 301 301 300 300 299 299 299 299 298 298 297 296 296 296 296 297 297 297 298 298 298 297 296 296 296 295 294 294 294 294 293 293 292 291 291 290 290 290 289 288 288 288 287 287 287 287 287 286 286 285 284 284 284 283 283 283 282 282
280 276 276 274 265 267 261 264 264 266 266 267 268 270 275 274 279 283 285 285 285 285 286 285 285 286 286 288 289 291 294 296 296 297 298 299 299 300 300 300 300 300 300 299 299 299 299 298 298 298 297 297 297 297 297 298 298 298 298 298 297 297 297 297 296 295 295 294 293 293 293 292 292 291 290 289 289 289 288 288 287 287 287 287 287 286 286 285 284 284 284 283 283 283 282 282 282
280 280 278 273 272 265 263 265 263 265 266 267 267 271 272 275 279 284 285 285 285 284 284 284 285 286 286 287 289 291 294 295 296 296 297 298 298 299 299 299 298 298 298 299 299 299 298 298 298 298 298 297 297 297 297 297 298 299 298 298 297 297 297 297 296 295 294 294 293 293 293 292 291 290 290 290 289 288 288 287 287 287 287 287 286 286 285 284 283 282 282 282 281 281 281 281 280
275 274 269 274 269 271 272 268 268 265 262 262 264 267 273 280 281 285 286 286 285 284 284 284 285 286 287 288 289 291 294 295 295 296 296 296 298 298 298 299 299 298 298 298 298 298 298 298 298 298 297 297 297 297 298 298 299 299 298 297 297 297 297 297 296 295 294 294 294 293 293 292 291 290 290 289 288 288 287 287 287 287 286 286 286 284 284 282 281 281 281 281 281 281 281 280 280
273 274 272 273 268 267 263 267 270 270 268 264 265 267 274 281 285 288 288 288 286 285 286 284 285 286 286 288 291 294 295 296 296 296 297 297 297 298 298 298 298 298 297 298 298 298 298 298 298 298 298 297 297 297 298 298 299 299 298 298 297 297 297 296 295 295 294 294 293 293 293 292 291 290 290 289 288 287 287 287 287 286 286 286 285 284 283 283 282 282 281 283 282 282 281 281 281
Wind_Speed
9 7 7 4 1 2 2 4 1 2 1 4 2 2 4 2 1 1 2 2 1 2 3 2 7 5 5 4 9 8 3 5 5 7 5 1 1 7 6 7 10 11 11 8 5 8 9 15 16 17 17 16 16 16 15 16 17 16 16 15 15 14 13 13 13 13 13 12 13 13 14 15 14 14 14 14 15 15 15 15 15 15 15 15 15 15 15 16 16 15 15 15 15 15 15 16 16
6 6 5 3 2 1 0 1 2 2 2 3 6 1 3 1 0 5 3 4 0 2 0 3 3 3 5 3 3 3 3 5 2 1 1 1 5 5 5 8 12 15 11 8 6 6 8 11 16 17 17 17 17 17 16 16 16 16 16 16 16 15 14 14 14 14 12 12 12 14 14 14 14 14 14 14 14 15 15 14 13 14 15 16 16 16 15 16 15 15 15 15 15 15 15 15 16
4 5 4 1 2 3 1 3 2 1 2 7 4 4 1 0 5 4 3 3 4 1 3 3 3 2 2 2 1 7 5 2 3 4 2 6 8 6 7 9 11 12 11 7 7 8 8 11 16 17 17 17 17 18 17 16 16 16 16 16 16 15 16 14 14 14 14 13 13 13 14 14 14 14 14 14 13 13 13 14 15 15 15 15 15 16 16 16 15 15 14 15 15 15 15 15 15
3 0 0 2 1 3 1 2 2 4 2 4 3 4 1 1 3 4 3 3 2 3 1 2 5 1 5 4 3 1 2 2 4 7 4 7 6 8 8 11 11 9 7 6 8 8 7 12 16 16 16 17 17 18 17 16 16 16 16 15 16 16 15 15 14 14 14 14 13 13 13 14 14 14 13 13 13 14 13 14 14 14 14 14 15 15 16 16 14 14 15 14 15 14 14 15 15
2 2 1 2 3 1 1 1 2 4 6 3 3 2 1 2 3 5 5 5 4 3 3 2 1 0 1 1 0 2 6 2 1 4 3 4 4 10 10 11 10 10 8 7 9 8 7 14 14 15 16 18 18 17 17 16 16 16 15 15 15 16 15 15 14 14 15 14 14 14 13 13 14 13 13 13 13 14 14 14 14 14 14 15 15 15 15 15 14 15 15 14 14 14 14 15 15
3 2 2 1 0 1 3 0 1 3 3 3 1 1 1 1 3 5 8 7 8 5 4 6 3 3 1 3 3 2 2 4 3 4 5 5 9 10 12 11 10 9 8 7 8 7 7 14 14 15 16 18 17 17 17 16 16 16 16 16 15 15 15 16 14 14 15 14 14 14 14 14 14 14 13 13 13 14 14 14 13 14 14 14 14 15 14 14 14 13 13 14 14 14 14 14 14
0 3 4 3 1 3 3 2 3 3 7 4 3 2 3 3 3 5 5 8 1 1 1 3 1 2 1 1 1 2 1 0 3 2 7 7 11 11 12 11 10 9 8 8 8 7 8 15 15 15 17 18 18 18 17 17 16 16 17 17 16 15 15 15 15 14 14 15 15 14 14 13 13 14 14 14 13 14 14 14 14 14 14 14 14 14 14 14 14 13 13 13 15 14 14 15 14
1 1 1 2 1 2 2 2 4 3 3 3 2 4 3 5 6 3 5 2 5 3 1 3 2 2 5 1 3 1 3 1 0 1 7 11 12 12 12 12 12 9 8 7 8 7 10 15 15 15 16 18 19 18 17 16 16 15 16 16 16 16 15 15 15 15 15 16 16 15 14 15 14 14 14 14 14 14 14 14 14 14 13 13 14 14 14 14 13 13 12 13 15 14 14 15 14
4 5 0 4 1 2 1 4 4 2 5 3 5 2 2 3 3 3 3 2 5 2 5 3 4 2 2 1 2 2 4 3 1 5 10 12 14 14 10 13 13 10 9 8 8 8 7 13 15 14 15 16 18 16 16 16 15 15 15 16 17 17 16 16 15 15 14 14 15 15 15 15 14 14 15 14 14 14 13 13 14 14 13 13 14 13 13 13 13 13 13 14 14 13 14 14 14
2 2 1 2 2 4 2 6 0 3 2 2 2 4 3 5 4 2 3 6 2 7 5 6 6 9 2 3 4 1 1 2 4 4 10 12 14 14 12 13 14 14 11 9 8 8 6 14 15 13 15 15 16 17 16 16 16 16 15 15 15 16 15 15 16 15 14 15 15 15 15 14 13 14 15 14 13 13 14 13 14 14 13 13 14 13 13 13 13 13 13 13 13 13 14 14 14
1 5 2 2 1 2 5 6 3 4 3 4 5 3 1 5 1 2 1 5 1 2 6 7 1 3 2 3 4 1 3 2 7 8 8 11 12 13 12 11 12 13 13 11 9 8 8 9 14 13 14 14 15 15 16 16 17 17 16 15 14 15 16 15 15 15 15 15 15 15 15 14 13 13 14 14 13 13 13 13 13 13 13 13 13 13 13 13 13 13 13 13 13 14 13 14 14
1 1 2 1 2 5 4 4 2 5 7 4 2 2 4 6 2 3 6 9 5 7 2 7 2 2 3 3 3 3 5 4 4 7 8 8 10 9 9 9 10 10 11 11 9 8 8 7 8 11 12 13 14 13 15 17 16 16 17 17 16 15 16 16 15 15 15 15 15 15 15 15 15 13 14 13 13 13 13 13 13 13 13 13 13 13 13 13 13 13 13 13 13 13 13 13 13
3 2 5 2 2 1 2 3 5 2 3 4 3 2 5 3 2 3 4 4 3 3 2 5 3 1 3 2 3 2 3 2 2 4 8 8 8 8 6 7 8 9 10 9 10 10 8 7 8 8 9 12 13 12 14 15 16 16 17 17 15 15 16 16 16 15 16 16 16 15 15 14 15 14 13 13 13 13 13 12 13 13 13 13 13 13 13 13 13 13 13 13 13 13 13 13 13
4 5 5 2 1 0 1 3 0 3 3 2 1 5 3 0 0 2 2 7 10 1 1 6 1 1 2 3 4 3 2 2 1 3 5 7 7 7 8 7 7 8 9 10 10 10 10 9 8 7 10 9 8 12 14 13 13 14 14 16 17 16 15 15 15 16 16 15 16 16 16 15 13 13 11 13 12 12 12 12 12 13 13 12 13 13 13 13 13 13 13 14 14 13 13 13 13
1 1 4 2 0 1 2 1 1 0 3 0 1 5 7 2 1 2 3 3 7 1 8 2 1 1 2 2 5 1 4 4 4 4 6 6 6 7 7 8 8 7 7 9 9 9 9 8 7 7 8 7 8 7 8 10 14 12 13 13 14 15 13 13 13 12 13 12 12 11 14 15 13 13 10 9 13 13 12 12 12 13 13 12 13 13 13 13 14 14 14 14 14 14 14 14 15
3 4 3 0 2 1 3 1 0 1 5 1 3 5 3 1 1 3 1 1 5 3 5 3 3 1 1 2 3 3 8 4 6 6 7 8 7 6 7 8 7 7 7 9 8 8 8 8 7 7 7 7 6 6 6 7 13 12 12 13 14 15 14 12 11 12 11 11 11 10 10 10 12 9 10 10 14 11 11 7 11 12 13 13 13 13 13 14 14 14 14 14 15 15 16 16 16
2 3 0 3 4 2 3 1 1 3 3 2 3 5 4 5 2 2 2 2 4 4 5 4 3 1 3 3 6 8 9 5 8 8 8 8 7 7 7 7 7 7 6 8 9 9 9 9 9 8 7 7 7 7 6 7 9 12 8 10 11 12 14 12 13 13 10 8 8 9 10 6 5 5 6 6 9 5 8 8 9 11 13 12 13 13 13 14 14 14 14 15 16 16 16 17 17
1 1 2 2 3 1 3 3 4 1 1 3 3 1 1 6 6 4 4 1 1 6 6 7 2 4 3 2 3 6 5 6 10 11 8 8 7 7 8 8 9 9 9 8 8 8 9 9 9 9 8 8 8 6 5 5 6 8 7 7 6 8 9 10 8 7 9 7 9 8 6 5 5 5 6 7 5 6 7 8 8 9 12 13 13 13 13 14 14 14 15 16 17 16 15 8 8
4 2 1 5 4 3 2 1 3 0 4 3 2 2 0 5 1 4 6 11 6 12 10 2 7 6 4 3 5 5 1 6 2 1 6 6 7 10 11 8 9 10 10 10 9 10 8 7 8 8 9 10 10 7 6 4 5 5 5 6 7 8 8 8 7 7 7 7 7 6 5 5 6 6 5 6 5 9 8 9 9 9 11 12 12 13 13 14 14 15 16 17 16 15 8 6 7
0 2 2 3 3 3 5 2 4 5 1 4 4 1 1 3 1 1 2 7 10 10 11 10 5 9 5 5 8 7 6 3 3 11 12 10 10 11 10 10 10 12 12 11 10 7 8 8 8 8 10 9 10 7 7 5 5 5 5 6 7 6 6 7 7 7 7 7 6 7 6 6 6 6 7 11 9 6 6 10 13 13 14 14 13 7 11 13 15 16 16 15 10 6 6 6 6
1 1 2 1 2 2 1 1 5 4 1 2 2 3 5 4 2 1 1 7 10 11 9 10 13 10 8 5 6 4 6 4 6 9 6 9 11 8 11 12 12 10 9 8 8 10 10 9 8 7 7 8 11 8 8 6 6 6 5 6 7 6 6 6 6 6 6 7 7 7 6 6 6 5 5 6 6 5 6 6 6 7 6 7 9 7 7 7 8 7 7 8 6 6 6 6 5
1 3 1 1 1 1 5 3 4 1 1 2 3 5 6 2 2 3 3 6 12 6 7 2 6 7 5 5 4 5 3 8 7 7 7 8 7 7 4 4 3 4 8 9 11 9 10 10 10 8 8 7 8 8 8 8 8 6 6 6 7 6 6 6 5 6 6 6 7 7 6 7 6 6 6 6 5 5 6 6 5 6 6 5 5 6 6 6 6 6 7 6 5 5 6 5 4
1 2 1 1 2 2 2 2 1 0 3 4 5 3 4 2 6 3 5 13 11 10 8 6 5 7 4 2 3 4 4 8 7 6 9 9 7 6 3 3 4 5 5 8 9 8 9 10 10 11 10 8 8 8 9 9 7 6 6 6 8 6 6 7 6 5 5 5 7 6 7 6 6 6 6 5 5 5 6 5 6 6 6 6 5 7 6 5 5 6 6 6 5 6 6 5 5
2 3 2 4 3 4 5 5 2 3 3 8 2 4 6 5 11 0 4 13 14 15 9 6 8 6 3 5 5 6 6 6 10 6 8 6 6 9 9 9 10 6 8 10 9 10 10 12 11 11 11 10 9 9 10 8 8 8 7 6 6 7 7 6 6 5 5 5 5 5 6 6 6 6 5 5 5 5 6 5 6 6 6 5 4 6 6 5 5 5 5 5 6 5 6 5 5
4 2 1 4 3 5 5 5 7 6 9 8 4 5 13 4 5 4 13 15 12 10 7 7 6 6 7 5 8 7 7 7 9 11 5 6 7 7 7 5 4 4 8 10 10 10 12 12 13 13 12 13 10 9 10 9 8 7 7 7 6 6 6 6 6 6 6 5 4 5 6 7 5 6 5 5 5 5 5 5 5 5 5 5 5 5 6 6 5 5 5 5 5 6 5 5 5
1 3 1 4 6 7 6 8 7 7 5 2 3 9 10 5 4 7 18 16 9 4 4 3 3 5 7 7 8 6 6 7 7 9 11 5 5 6 7 9 6 8 10 12 12 12 12 12 14 12 11 10 10 10 10 10 10 9 8 8 7 6 6 6 6 6 5 6 5 4 5 6 6 6 5 4 6 5 5 5 5 5 5 5 5 6 5 6 6 5 5 5 5 5 5 5 5
3 3 4 6 12 6 4 4 3 3 3 1 2 7 5 1 3 8 4 7 1 1 3 1 2 5 7 7 8 5 5 8 10 7 6 4 5 7 7 3 6 7 6 8 9 10 10 11 12 14 14 14 12 12 11 11 11 9 8 8 7 7 7 7 5 6 5 5 5 4 5 5 6 6 5 4 4 5 4 5 5 5 5 3 5 5 3 5 5 6 6 6 5 5 5 4 5
1 2 5 7 6 5 4 1 2 3 2 3 5 8 5 2 2 11 15 1 5 6 8 7 4 5 7 8 9 7 5 8 6 3 8 8 7 7 9 8 5 3 3 5 6 5 9 12 12 14 13 10 10 11 11 11 12 11 9 7 7 7 8 6 6 6 6 5 5 4 4 5 5 5 6 5 5 4 4 5 5 5 4 3 4 5 5 4 5 4 4 4 4 5 5 4 3
1 3 6 5 8 6 4 1 1 3 4 2 4 7 6 3 6 13 9 4 5 5 8 8 7 6 6 7 7 8 9 8 4 4 9 10 6 5 8 8 8 9 4 1 1 5 11 12 12 13 12 13 15 14 10 9 9 10 10 9 7 7 7 7 6 6 6 5 5 5 4 4 4 5 5 5 5 4 4 4 4 4 4 4 4 5 5 5 5 5 5 4 5 4 5 4 4
0 3 1 7 6 4 1 1 1 7 2 1 2 9 3 4 10 11 9 5 5 6 8 9 9 8 8 7 7 8 9 7 7 8 8 9 7 6 8 9 8 9 8 6 3 2 4 6 8 9 11 13 10 8 8 8 7 8 9 8 8 8 7 6 7 6 6 5 5 5 5 4 4 4 5 5 5 5 4 4 4 4 4 4 5 5 6 5 5 5 5 5 4 4 5 4 5
1 2 4 3 8 3 2 2 6 4 2 1 1 3 13 7 10 11 6 3 4 6 6 9 10 10 8 7 7 8 9 8 9 9 9 10 8 6 8 9 9 9 7 8 10 3 4 3 3 6 11 13 11 12 11 10 8 7 8 8 8 9 7 6 5 6 6 6 6 5 5 5 4 5 4 6 5 5 5 4 4 5 4 4 5 5 6 4 5 6 5 6 3 3 3 3 4
3 4 5 3 2 8 8 7 1 1 1 2 1 7 12 9 11 12 7 5 5 11 11 10 10 9 9 8 8 9 10 9 8 10 11 10 8 7 8 11 9 10 10 10 10 10 7 7 7 6 4 6 10 11 10 10 12 8 6 6 8 9 8 7 5 4 5 6 6 5 5 5 5 5 5 5 5 5 5 5 4 5 4 4 4 4 5 5 4 5 3 6 5 3 4 2 3
5 5 6 7 0 7 13 1 1 2 1 1 2 9 11 9 7 8 7 6 8 10 12 11 9 9 8 7 6 6 9 10 10 9 10 9 9 8 8 10 10 11 10 10 10 12 12 11 12 13 9 4 3 6 9 10 8 12 10 7 7 8 9 8 6 5 5 5 6 6 4 4 5 5 5 4 5 5 5 5 4 4 4 5 5 5 4 4 5 5 2 1 4 4 3 3 3
4 3 2 3 7 7 7 6 2 2 2 5 1 4 10 14 18 17 15 9 7 9 11 10 9 7 7 6 6 7 7 9 11 12 11 9 9 8 9 10 11 9 8 9 10 12 12 13 12 11 14 14 8 3 5 9 9 8 9 7 6 7 8 8 6 5 5 5 4 6 8 4 4 5 5 4 5 5 5 5 5 4 4 5 5 5 4 4 4 5 4 1 2 5 3 4 3
4 5 6 7 3 5 12 8 3 8 2 3 4 7 16 18 16 14 13 8 5 9 10 9 8 7 7 5 5 6 7 8 12 11 11 10 8 8 8 10 10 7 5 7 8 9 7 7 9 12 13 13 13 11 5 7 10 10 9 9 7 7 6 7 7 6 4 4 5 5 7 6 6 5 5 5 6 5 5 5 5 3 4 5 5 5 5 4 4 3 5 3 3 1 3 4 4
5 5 4 5 9 8 8 8 5 2 5 9 5 9 14 17 15 15 15 7 4 9 8 7 7 6 6 5 6 6 6 9 10 10 10 9 7 7 8 8 8 5 6 7 8 7 8 9 8 10 12 14 13 12 9 7 7 9 11 8 8 6 6 7 6 7 5 5 5 6 5 5 6 7 4 4 6 6 5 6 5 3 4 5 6 5 4 4 6 5 4 5 4 3 3 3 4
1 1 2 7 8 13 7 7 6 1 4 6 6 6 12 16 15 14 14 9 7 6 7 7 6 6 5 5 6 8 8 8 9 10 10 9 7 8 8 6 6 5 7 8 9 9 10 11 12 13 11 14 14 13 12 10 10 7 8 11 9 7 7 7 6 6 5 4 5 6 6 5 5 8 6 4 5 6 5 5 5 4 3 4 5 5 4 3 3 4 5 3 4 3 2 2 2
3 2 2 8 3 11 7 4 2 1 5 7 6 9 14 14 13 13 9 5 8 7 7 7 7 5 6 6 8 7 8 6 8 9 10 6 5 6 6 5 5 9 9 11 11 12 12 11 14 14 12 12 13 15 14 12 8 8 9 9 9 10 9 9 8 5 5 4 4 4 5 5 6 5 7 7 5 6 6 5 5 5 4 4 3 3 5 2 2 4 4 3 2 3 1 3 4
1 3 2 3 8 9 14 4 1 1 5 10 4 6 16 15 13 11 6 5 7 6 5 5 4 7 7 7 7 7 7 10 9 9 8 7 6 6 6 6 8 10 11 13 13 13 12 11 9 12 12 14 13 12 11 10 8 6 6 7 10 8 5 5 6 5 6 6 4 4 4 5 5 5 5 6 6 5 6 6 5 5 4 4 4 4 4 4 4 5 5 5 3 2 2 0 3
2 1 1 6 3 7 11 2 1 6 2 5 5 11 14 10 5 8 7 4 6 6 5 7 6 7 9 8 7 7 8 10 10 10 9 8 6 5 4 6 7 7 7 8 10 13 11 10 10 11 12 11 12 12 11 10 10 9 8 9 7 5 7 7 6 5 5 6 5 4 4 5 4 5 4 4 4 5 5 6 5 6 6 4 4 5 3 3 4 4 3 3 5 3 1 1 1
2 3 4 4 4 3 5 10 11 8 2 1 9 6 6 3 3 6 6 3 3 5 4 5 7 7 7 6 6 5 8 9 10 10 9 7 6 6 6 7 7 8 9 10 11 11 9 13 13 13 12 10 11 13 13 14 13 12 10 9 8 10 7 7 8 5 5 5 5 4 4 4 4 5 5 4 5 5 4 5 5 5 5 5 4 4 4 4 4 4 4 4 4 5 3 1 1
6 5 8 6 4 5 6 6 11 8 6 2 10 10 3 3 6 8 7 5 7 5 3 8 9 6 4 5 7 7 7 6 8 10 9 7 7 6 5 7 8 8 9 10 11 12 12 11 12 11 9 10 8 12 16 14 14 16 14 12 10 8 10 10 12 13 10 9 8 5 4 3 4 4 5 5 5 4 5 4 4 5 6 5 5 6 6 5 5 5 5 4 4 1 4 3 3
5 6 4 4 4 4 5 7 4 5 3 5 5 2 10 2 5 5 5 4 9 10 6 9 7 6 5 6 7 8 7 8 6 7 7 7 6 4 6 8 10 9 10 10 10 11 12 12 13 13 12 10 11 11 13 12 13 12 17 17 15 14 12 6 4 5 7 6 6 7 5 4 4 5 5 5 5 6 6 6 6 4 4 5 4 4 5 6 6 5 4 4 5 4 4 3 5
5 1 1 2 5 8 7 2 2 4 2 6 5 2 3 10 10 4 4 5 10 8 9 8 6 5 6 8 8 8 7 6 7 8 8 6 5 5 8 9 11 11 10 9 10 10 12 13 14 13 11 11 10 12 11 10 14 12 11 10 10 10 9 8 8 7 6 6 7 6 5 4 3 4 5 4 4 5 6 6 6 5 5 5 5 4 5 3 3 2 4 4 4 4 5 5 4
5 3 2 8 9 8 4 1 2 0 1 7 3 2 1 4 10 5 4 8 7 8 7 7 6 5 8 10 10 9 8 6 6 8 8 8 7 5 7 9 10 10 10 11 11 11 11 12 13 12 12 12 11 12 12 9 8 10 10 9 9 6 8 8 7 7 8 7 7 6 5 5 3 3 4 5 4 4 4 5 5 4 5 5 5 3 3 4 5 5 5 4 5 4 4 2 4
3 4 8 5 1 2 2 3 4 1 2 4 1 0 2 9 6 6 2 4 7 8 10 7 6 10 12 12 10 10 10 6 5 7 7 8 7 6 8 9 9 9 10 10 10 10 11 11 12 13 12 11 11 12 11 10 10 9 10 10 12 10 8 8 8 9 9 8 7 6 5 5 4 4 3 3 3 3 4 3 4 4 3 4 4 4 4 4 4 4 5 5 4 4 3 4 4
6 4 3 4 6 2 2 4 3 3 1 6 3 1 1 6 8 5 7 11 12 11 8 7 8 10 14 13 9 10 11 9 8 6 7 8 7 7 8 9 6 9 9 9 9 10 10 12 13 14 13 11 12 13 13 12 10 10 9 11 12 13 12 12 11 9 9 9 9 7 6 5 4 4 3 3 4 4 4 3 4 4 3 4 4 4 5 5 4 4 3 2 3 4 4 3 2
2 3 4 6 1 5 2 4 3 1 4 2 3 4 2 2 8 5 5 7 8 8 12 14 14 15 15 13 11 10 11 9 9 8 7 7 7 5 9 9 9 9 10 10 9 9 10 10 11 13 11 12 12 12 12 11 10 10 9 11 12 11 13 12 13 13 11 11 10 9 6 5 4 4 4 3 3 4 4 4 3 4 5 4 5 4 4 3 3 3 3 2 3 2 2 3 3
7 6 9 7 6 7 2 6 6 0 2 1 5 3 2 6 11 12 13 10 6 4 8 12 14 16 15 13 12 11 10 8 8 8 7 6 5 7 10 9 10 10 10 11 11 10 10 10 12 13 13 12 12 13 13 12 11 10 10 11 10 10 10 10 10 11 11 11 10 9 9 7 6 6 5 6 5 5 4 5 5 4 4 4 4 3 3 4 4 4 3 3 3 3 4 4 4
9 6 3 6 7 6 5 5 3 6 4 1 2 3 2 6 10 7 8 4 3 7 9 10 13 14 15 13 12 11 9 7 7 7 7 5 5 6 8 10 10 9 10 11 11 10 9 9 11 12 11 12 11 11 12 11 11 10 9 9 9 9 9 9 9 10 10 9 9 10 10 10 10 9 8 8 6 5 4 4 4 3 3 3 4 4 4 3 3 4 3 3 3 3 3 3 4
0 4 1 2 4 0 5 2 3 5 10 6 2 1 5 6 8 4 2 2 4 5 9 12 12 12 12 12 12 11 9 7 7 7 7 4 4 5 7 9 9 10 11 10 10 10 10 10 10 11 11 10 11 11 10 11 9 9 9 8 8 8 8 8 7 7 9 10 9 9 8 7 8 7 8 6 6 5 5 5 4 4 5 5 4 3 3 3 3 3 3 3 3 3 3 4 4
1 3 4 3 3 4 3 5 3 5 8 8 2 4 3 5 6 7 3 4 7 8 11 14 17 14 14 13 12 11 10 9 8 4 6 5 4 7 6 7 8 9 11 9 10 10 10 10 10 11 12 12 12 11 10 10 10 9 9 10 9 9 7 7 6 6 7 7 8 9 8 8 7 6 6 7 6 7 7 6 5 5 5 5 4 4 4 4 3 4 3 3 4 2 4 4 4
1 2 0 1 2 4 2 3 1 1 1 9 2 8 6 7 7 3 3 9 12 9 12 14 15 14 12 11 10 11 10 8 9 3 3 5 3 7 7 7 6 8 8 9 10 10 11 11 10 9 9 9 10 11 10 9 9 10 10 9 9 10 10 10 9 10 9 7 7 6 7 7 6 6 6 6 7 7 6 6 5 5 5 4 4 4 4 4 4 3 4 4 4 3 3 4 3
5 2 2 1 3 4 3 3 4 2 2 7 4 7 12 9 7 0 7 11 14 12 14 14 15 14 12 12 11 10 9 8 7 7 3 2 4 8 8 8 8 9 8 8 8 7 8 9 10 11 10 11 9 9 9 9 10 10 10 9 9 10 9 9 8 9 8 8 7 6 6 6 7 7 7 7 7 7 6 6 5 5 4 4 5 4 4 4 4 3 3 3 4 4 4 3 3
1 3 3 1 2 3 2 1 7 8 7 6 5 5 8 3 7 7 13 18 20 19 15 17 22 19 15 13 12 11 8 6 6 8 4 4 5 7 8 8 8 8 8 8 7 7 7 7 8 9 10 10 11 9 8 7 8 8 8 9 9 9 8 8 7 7 7 8 8 8 8 7 6 7 7 7 7 7 7 6 5 5 4 5 4 4 4 4 4 4 3 4 4 4 4 4 4
1 3 2 1 2 3 0 1 2 5 7 9 7 3 8 3 2 3 7 11 14 17 15 15 17 16 13 12 10 10 8 5 5 6 7 4 8 5 11 9 9 9 9 8 8 7 8 8 8 8 7 7 8 8 8 9 8 7 7 7 8 7 8 8 8 9 9 8 8 8 8 8 8 7 7 7 7 8 7 6 5 5 5 5 5 4 5 4 4 3 4 4 3 4 4 4 3
1 3 1 0 0 2 2 1 2 3 2 2 4 10 7 8 2 2 3 7 9 10 11 11 14 14 13 12 11 8 6 4 4 6 7 7 7 7 8 9 8 8 8 8 8 8 7 7 7 8 10 9 9 9 9 8 8 8 8 9 9 9 9 8 8 8 8 7 7 7 7 7 7 7 7 8 8 8 8 7 7 6 6 6 6 5 4 4 4 3 3 3 4 4 4 3 3
5 5 3 5 1 3 3 8 2 1 2 3 2 10 9 11 1 2 1 5 6 2 6 9 14 14 11 10 10 10 3 4 4 5 5 5 5 10 9 8 7 7 8 8 7 7 8 7 7 7 7 8 9 9 8 8 8 7 9 9 9 8 8 8 9 8 8 7 7 7 7 7 8 7 8 8 8 7 7 7 8 7 6 5 5 5 5 5 5 4 3 3 4 5 4 4 4
Wind_Direction
327 326 315 306 301 98 53 354 131 303 72 246 304 180 247 252 212 355 245 349 186 252 197 98 116 134 162 200 194 180 203 167 199 138 214 240 151 158 142 141 140 144 156 160 168 170 153 151 157 159 161 159 155 155 152 151 153 150 149 144 144 143 145 139 141 137 136 136 134 136 134 131 133 131 131 124 125 124 120 115 113 111 113 114 116 113 104 105 104 101 100 100 98 95 89 87 86
317 320 312 298 269 63 294 114 93 332 33 328 242 120 252 296 126 243 228 206 191 289 179 141 149 100 44 51 134 111 248 214 166 170 324 230 107 140 162 149 152 153 159 161 164 162 147 158 162 164 160 158 158 153 153 152 152 150 149 148 146 147 140 147 142 138 139 133 135 137 135 135 135 130 125 122 120 119 119 118 116 119 118 116 113 112 107 104 103 102 103 102 98 91 87 86 86
324 349 338 358 2 62 76 35 276 89 166 243 281 222 308 128 218 250 279 357 318 3 76 64 99 95 90 32 183 170 238 144 123 160 128 132 133 195 175 153 157 154 155 156 156 149 152 162 166 164 160 160 160 155 156 156 152 148 150 150 149 146 147 146 142 143 140 139 140 139 136 136 133 129 128 126 124 121 124 118 124 120 117 114 113 111 107 104 105 101 102 103 99 93 94 92 89
343 24 112 56 246 27 61 23 99 133 176 223 317 275 276 298 338 337 304 299 311 152 124 170 167 254 154 205 200 32 288 237 197 149 147 186 199 158 162 157 155 154 150 150 152 148 153 169 168 160 162 161 160 157 159 159 156 156 151 153 150 150 149 145 145 146 140 143 140 138 140 139 131 132 132 126 125 123 119 122 120 115 109 112 110 106 109 110 109 107 102 100 96 97 94 90 92
39 325 89 96 106 347 115 215 158 130 228 184 204 280 303 325 300 335 313 295 289 188 195 160 357 321 194 208 134 167 230 136 205 172 148 181 115 151 157 154 156 155 155 153 147 149 160 168 157 157 163 163 160 157 161 162 161 161 156 156 153 151 148 143 148 142 142 143 140 142 140 139 137 126 120 129 129 126 128 127 120 116 119 118 117 115 114 114 107 106 109 104 101 97 96 95 94
52 36 339 84 345 165 51 355 294 215 226 166 247 230 95 320 344 329 300 308 282 224 201 176 196 173 219 216 193 210 184 152 173 169 147 185 150 150 157 154 154 156 154 151 150 151 161 159 156 160 167 163 161 162 163 164 164 161 157 157 155 150 150 148 148 149 146 144 143 144 143 143 139 130 128 131 130 131 127 122 122 122 121 119 118 118 115 113 111 104 108 108 101 98 99 100 98
306 39 0 28 16 56 179 188 235 211 270 163 240 299 339 322 337 313 323 336 309 231 212 199 53 59 307 259 334 239 343 144 113 205 159 154 144 152 154 154 150 156 156 152 153 152 163 160 161 165 169 165 161 166 165 164 162 162 160 158 155 152 154 149 149 149 144 148 146 143 142 139 132 132 128 133 135 132 129 126 124 123 121 120 118 117 115 114 115 115 111 109 100 97 97 98 96
71 117 319 104 210 29 263 232 257 155 273 176 257 318 348 344 333 344 319 345 312 345 242 233 225 195 242 345 205 306 345 335 357 118 115 139 146 154 158 154 155 161 159 153 155 156 165 162 164 170 170 166 164 165 165 163 161 162 162 156 156 155 155 153 152 152 150 150 148 145 144 143 142 136 133 141 138 133 132 130 128 125 121 119 119 120 121 119 115 114 113 109 103 106 102 97 99
2 83 255 74 208 34 4 252 253 245 282 306 295 173 23 325 311 309 320 292 299 312 303 259 208 174 286 318 236 290 298 314 17 129 136 147 154 158 160 162 160 162 162 158 156 157 162 164 164 170 161 164 163 163 166 163 165 164 166 158 159 158 158 158 152 153 154 150 149 145 145 144 143 139 139 140 138 135 131 130 130 126 123 125 123 120 120 118 115 117 116 108 108 107 107 104 100
39 80 249 135 119 249 340 277 126 245 233 253 287 305 318 330 325 58 329 336 321 309 281 284 168 217 18 231 315 317 300 327 117 125 155 160 159 158 164 168 164 159 160 161 159 157 155 163 162 162 159 164 166 166 164 165 165 165 167 168 162 157 159 155 154 154 155 152 151 147 144 142 141 148 141 140 137 137 136 133 130 127 127 126 124 124 121 119 117 117 114 112 110 109 107 105 104
14 10 149 84 35 269 230 276 250 317 293 314 302 277 329 316 309 325 341 273 278 319 308 359 131 323 1 267 223 251 296 235 146 165 169 161 160 165 163 165 162 162 162 162 159 154 155 161 162 161 159 166 167 164 167 163 167 165 163 167 161 162 159 157 157 157 154 153 151 147 144 146 148 149 143 140 141 139 135 133 131 128 128 127 125 124 123 121 118 118 117 115 111 109 108 107 105
35 20 2 129 198 181 250 232 305 279 296 340 292 28 351 321 346 13 336 352 341 330 321 23 334 314 302 308 286 329 335 201 192 164 159 159 163 165 160 158 160 161 160 159 157 151 154 159 159 160 161 165 164 162 162 162 168 167 161 166 168 165 158 161 161 160 155 154 149 149 150 151 150 151 147 138 142 141 140 136 131 130 129 127 125 124 124 122 120 118 116 113 112 109 109 106 106
111 99 82 100 239 152 249 302 262 270 329 281 238 311 343 23 37 302 291 281 285 330 347 346 279 176 281 224 254 316 322 256 263 168 158 160 163 156 151 150 158 155 155 157 157 154 155 153 157 160 163 161 157 159 160 162 169 168 164 163 166 167 162 162 161 159 157 155 152 159 151 154 155 151 140 143 144 145 139 133 133 131 128 127 125 125 124 123 122 119 115 114 110 108 107 106 106
118 177 131 227 67 130 171 248 300 320 291 251 289 303 321 333 215 286 288 348 321 312 272 313 310 180 270 322 322 359 346 146 205 170 153 154 152 154 153 148 155 161 158 157 161 160 163 163 159 157 162 165 158 157 157 167 166 162 166 164 166 165 169 162 163 160 156 157 155 157 154 157 145 142 148 147 148 136 134 138 133 131 128 129 127 126 123 123 122 119 116 112 109 107 105 105 100
110 170 82 125 282 38 240 150 244 133 263 287 288 354 343 270 52 18 84 1 295 232 301 234 218 119 264 49 289 332 314 168 153 161 153 151 150 151 151 151 156 156 163 162 158 163 167 158 158 154 162 160 156 152 159 166 162 170 159 164 163 159 167 159 164 152 147 154 151 155 153 136 129 143 161 129 118 128 140 136 135 133 130 129 128 125 123 121 122 120 116 113 108 104 100 94 90
134 81 71 106 278 120 272 200 84 18 270 216 304 322 296 282 302 5 243 167 266 326 35 285 1 258 288 220 244 279 303 163 152 156 155 154 152 147 151 155 157 164 166 166 165 167 164 162 159 155 155 157 144 147 148 151 156 169 156 160 161 160 159 165 158 140 140 144 143 135 128 128 142 150 117 114 119 142 135 121 134 135 132 131 128 124 121 120 121 119 117 112 104 99 92 86 83
50 82 19 31 298 142 259 176 172 266 255 272 303 33 26 295 285 249 269 242 246 277 333 245 251 73 218 225 297 291 287 168 149 161 160 159 161 160 155 161 161 166 171 177 171 170 168 166 163 154 155 149 142 137 136 145 149 156 150 145 147 150 148 150 138 137 130 108 99 87 75 66 61 77 90 95 101 106 108 119 128 135 134 131 128 125 123 121 119 115 114 109 102 92 85 81 78
60 62 110 279 207 137 213 199 190 214 246 283 349 339 49 315 330 300 320 111 337 294 286 286 288 238 199 250 286 280 272 159 164 167 171 166 169 167 167 170 167 173 175 177 180 172 169 169 167 158 149 149 143 137 129 140 150 138 142 132 110 105 106 106 102 106 104 102 87 79 84 80 79 77 75 81 94 100 103 108 115 129 133 132 131 127 123 121 115 113 113 99 89 80 71 56 52
82 123 103 237 186 236 162 207 233 171 269 247 270 285 172 267 350 322 359 301 349 328 304 266 294 279 284 313 330 344 234 173 66 170 220 210 190 182 180 177 177 170 178 179 179 175 174 164 161 158 157 153 144 137 119 116 121 111 119 108 102 100 103 103 107 104 103 103 102 97 90 89 80 77 78 85 80 103 111 110 115 116 128 133 131 126 125 120 116 114 104 93 86 78 69 67 68
207 115 256 249 212 255 236 249 274 209 290 294 322 279 62 258 321 303 288 296 318 287 281 306 270 278 286 326 343 340 325 168 158 221 210 193 197 192 188 188 186 186 184 180 172 170 165 169 168 160 157 156 141 133 117 119 113 110 109 110 104 106 104 111 110 107 109 110 109 98 90 85 81 81 69 69 68 57 69 68 62 57 59 60 61 77 100 104 98 92 90 85 78 74 76 75 77
271 88 193 236 204 357 286 195 253 263 221 282 251 305 325 287 228 29 276 336 285 268 252 234 277 292 312 319 323 318 318 274 197 223 255 222 209 199 195 193 193 191 180 163 165 175 172 163 156 155 151 150 142 140 127 127 115 110 111 112 114 113 112 112 110 110 112 115 106 103 103 97 92 82 78 73 69 73 79 74 67 69 68 65 78 79 72 71 72 74 73 76 79 87 85 78 82
117 214 188 199 273 270 258 264 252 271 285 280 287 326 276 340 292 207 201 233 263 255 270 189 234 266 281 312 343 339 308 296 223 211 236 225 231 222 244 241 245 165 164 174 180 174 169 165 161 155 154 153 146 141 132 124 117 123 121 120 116 112 116 111 111 113 113 115 113 117 112 102 95 85 76 77 66 79 83 82 80 87 78 80 87 89 80 87 82 84 89 87 83 84 85 86 79
353 311 311 218 203 238 256 325 239 188 297 285 298 256 327 295 287 232 207 227 250 255 260 301 276 266 266 306 300 305 313 294 299 243 212 227 239 251 210 192 215 159 173 183 176 172 168 167 165 156 157 150 142 130 126 128 124 122 120 130 125 121 120 119 115 112 112 118 117 126 119 108 99 98 93 88 83 84 87 91 90 89 96 94 93 101 89 86 95 94 94 97 97 91 85 83 83
139 244 339 320 151 232 256 276 284 280 255 265 215 337 301 294 303 94 225 246 244 265 282 288 281 294 284 283 262 253 256 267 278 282 308 280 251 229 226 202 201 192 174 182 180 177 176 172 168 161 156 152 144 144 134 128 130 132 133 127 120 133 127 122 121 118 118 116 117 116 118 117 119 113 107 99 106 91 95 97 102 93 98 99 94 104 105 94 95 98 104 101 99 94 95 86 85
135 272 299 272 309 250 276 272 284 280 266 267 302 292 264 237 243 339 265 264 258 259 281 278 292 300 295 271 270 260 262 270 275 279 270 288 274 260 264 252 237 213 196 184 183 183 183 175 165 168 163 156 151 146 132 130 123 125 128 128 131 135 126 125 125 124 118 112 105 119 124 121 119 117 115 117 109 100 102 97 97 100 102 111 109 96 115 116 107 110 108 108 104 103 101 96 91
160 221 285 278 267 282 278 292 276 268 275 262 295 259 273 262 245 246 252 266 272 278 278 319 317 303 287 279 267 260 254 256 258 274 268 241 283 297 245 234 225 209 212 199 188 187 181 174 169 160 157 155 153 146 145 144 146 144 144 139 136 125 120 122 124 116 115 119 116 115 113 122 125 125 118 121 116 110 103 97 96 106 109 119 116 117 122 120 124 110 107 108 109 110 104 109 102
157 264 255 268 278 311 294 214 300 290 238 128 225 283 287 295 43 286 258 233 339 8 320 333 332 286 282 284 282 263 239 249 246 255 289 271 259 252 257 270 252 225 213 230 203 184 179 172 167 171 168 161 156 158 161 153 145 145 143 137 130 128 126 119 110 113 110 105 113 110 109 116 122 120 122 122 107 115 107 107 105 108 111 114 116 119 122 125 128 129 132 128 124 115 107 106 111
248 233 279 289 299 262 271 299 295 346 323 183 202 264 270 275 121 241 263 241 46 0 318 313 293 275 282 282 285 282 250 248 249 255 252 268 247 223 238 222 205 289 232 226 201 205 181 177 171 175 165 160 158 161 160 154 154 143 137 129 126 126 125 120 119 119 117 111 107 107 109 114 120 122 129 123 123 120 121 117 122 118 124 116 116 125 119 114 116 110 108 111 111 111 107 91 99
291 38 352 314 332 358 355 36 331 27 314 153 176 279 280 170 226 247 254 337 359 343 309 309 309 301 284 279 277 281 266 272 252 222 242 238 246 232 238 228 201 207 207 207 343 215 195 180 175 173 164 159 172 165 156 151 143 140 140 137 130 128 122 123 124 124 120 120 119 117 114 118 123 134 131 130 123 121 123 124 125 126 131 129 122 121 115 110 105 105 95 102 98 99 99 90 81
227 44 55 338 6 351 299 358 313 345 298 64 323 317 260 260 244 270 289 342 341 336 324 317 310 303 300 291 281 276 278 275 264 243 242 245 239 237 232 241 228 216 197 203 249 218 213 193 173 167 165 169 164 129 140 141 142 140 134 131 131 126 124 128 130 128 126 125 124 123 126 126 124 125 132 123 122 125 129 135 133 127 135 131 127 123 119 125 122 117 128 116 124 121 122 128 111
22 273 67 77 348 288 301 1 318 359 313 22 34 247 287 269 280 281 302 35 13 313 298 295 292 297 296 290 286 279 274 259 252 254 252 247 245 238 226 239 232 225 212 182 206 181 153 143 142 170 170 166 155 159 149 143 136 131 123 127 130 126 118 114 123 127 128 128 122 124 130 128 130 132 131 132 133 131 134 133 128 138 138 136 134 130 127 128 127 133 140 120 103 100 116 126 124
356 38 322 329 47 278 310 316 218 341 309 43 89 257 253 284 279 277 299 337 342 310 301 291 291 293 295 292 285 283 276 265 251 249 245 252 248 239 226 233 219 217 214 197 186 179 181 156 127 105 147 162 155 155 146 142 138 124 118 126 128 126 117 106 92 101 120 122 121 119 125 131 133 135 135 135 133 137 136 137 139 134 135 125 118 118 125 136 133 129 141 136 123 134 129 93 90
1 75 293 311 304 285 336 353 306 346 276 307 172 262 304 291 256 286 294 309 314 304 296 293 295 292 290 288 285 280 288 291 284 266 259 250 250 233 231 231 225 215 208 201 188 193 184 168 160 143 135 88 88 127 128 125 125 135 135 128 126 122 118 114 108 103 105 118 130 124 117 127 135 135 136 138 135 136 130 128 132 131 136 133 131 122 124 135 139 133 122 143 139 151 144 123 92
328 17 299 245 305 325 305 294 15 34 102 294 258 249 256 271 289 295 301 308 308 291 284 286 285 282 285 286 289 288 288 286 284 282 273 251 246 235 230 229 229 221 208 194 186 183 186 172 167 155 150 139 113 55 117 124 122 113 113 115 111 108 112 118 119 116 114 119 127 134 130 125 126 129 133 135 128 132 132 132 130 136 137 130 124 126 128 130 134 139 123 53 118 135 142 142 145
281 333 333 315 264 218 258 310 263 360 318 264 289 259 276 278 285 292 288 306 286 272 273 277 281 288 291 296 291 288 288 289 283 282 275 267 248 240 232 232 233 213 194 191 187 184 172 157 141 143 138 130 127 124 109 113 117 109 107 112 109 103 102 108 119 117 119 115 119 123 126 134 131 124 130 135 132 133 130 127 129 148 140 130 122 123 129 134 127 121 135 105 52 53 150 161 153
232 239 252 272 304 307 283 262 299 35 307 297 277 274 290 292 298 299 301 308 280 277 282 279 277 275 282 289 292 290 290 286 282 285 285 274 252 236 229 232 232 199 184 187 185 171 156 145 139 135 140 133 127 125 127 130 123 130 123 113 111 113 112 118 117 124 127 124 125 121 119 132 141 130 129 139 135 138 136 133 132 144 135 132 129 131 142 149 152 134 138 132 118 69 48 98 124
196 167 221 267 277 279 270 266 258 344 304 253 263 277 283 286 287 288 289 312 303 282 273 275 277 277 279 284 286 288 289 287 287 296 293 280 254 235 229 224 225 186 180 173 174 162 158 157 147 145 146 142 142 143 147 152 150 140 137 147 142 139 134 127 124 134 134 138 137 132 135 135 140 134 135 144 143 136 129 129 122 106 115 124 123 137 126 127 151 146 137 117 135 118 67 89 139
186 235 263 286 244 283 268 278 68 336 51 285 303 300 283 281 286 285 291 318 287 278 284 279 274 274 280 280 280 280 284 290 299 306 307 303 275 253 241 223 192 179 175 167 166 164 161 158 156 148 149 150 153 156 155 157 160 161 153 153 141 146 145 146 144 145 134 128 124 127 135 140 145 146 144 146 149 145 137 131 124 125 120 99 106 133 112 128 145 141 144 98 21 131 137 183 189
166 225 245 311 276 239 281 294 94 236 4 277 322 316 288 288 288 284 273 254 257 257 227 248 263 287 288 280 276 281 301 300 301 292 295 303 284 263 230 217 201 189 173 172 167 157 156 155 152 153 157 158 157 151 147 146 138 128 135 136 141 126 88 107 120 131 130 130 123 121 121 134 142 141 145 144 147 150 134 129 137 126 113 122 123 112 113 164 180 166 179 148 120 38 99 185 190
196 206 294 265 280 9 323 217 21 320 218 291 312 298 282 293 275 267 261 229 255 261 249 249 231 251 258 265 282 300 299 296 295 295 299 307 295 271 229 223 199 168 160 161 155 155 153 154 150 156 160 159 152 150 138 123 117 101 91 108 101 101 131 115 100 101 110 116 129 132 127 127 131 130 124 129 132 137 137 135 128 127 124 131 130 116 152 182 180 180 170 160 140 128 89 191 196
249 204 230 256 291 239 188 299 332 303 337 188 297 261 296 263 311 314 294 281 283 280 305 280 261 237 250 273 296 278 276 284 288 293 297 304 308 264 219 222 183 164 162 162 161 160 160 160 159 161 158 161 155 146 138 132 120 107 106 90 88 95 92 117 128 136 147 139 122 151 151 136 135 133 133 131 137 148 135 124 133 146 149 149 127 136 175 199 199 187 172 155 176 147 192 188 220
324 237 195 216 263 279 273 303 332 351 337 356 20 343 309 285 252 256 278 338 320 296 303 279 279 291 289 299 296 298 281 264 269 280 283 293 292 270 236 227 180 168 168 169 168 166 160 156 150 147 146 146 155 149 144 144 145 143 140 137 147 153 154 164 173 170 168 168 167 143 132 140 140 145 147 148 163 155 144 143 151 157 157 146 161 179 182 169 190 181 193 177 177 180 146 152 179
355 293 186 232 249 263 282 309 5 326 338 306 53 63 294 243 279 279 287 304 287 297 294 275 280 282 295 303 309 302 298 300 290 275 280 291 291 261 237 227 177 175 178 166 164 163 158 150 150 152 152 151 150 151 150 145 147 158 162 166 164 165 161 164 124 126 150 145 137 145 139 135 148 148 143 148 162 160 146 145 150 155 156 160 167 171 183 189 181 187 171 184 189 153 131 159 191
293 224 88 279 285 288 289 296 175 238 273 302 48 95 263 313 299 266 250 294 289 294 288 284 286 293 303 312 309 302 296 294 290 290 289 282 276 249 235 221 182 182 168 161 158 156 154 150 150 150 148 150 154 152 157 161 156 159 155 154 155 152 160 154 142 131 121 127 134 138 135 131 136 143 133 127 144 151 149 145 145 153 163 171 168 192 189 178 157 160 181 191 159 175 176 172 184
242 289 312 298 287 282 271 186 190 97 6 312 335 2 329 246 265 272 307 318 304 288 278 295 293 295 312 314 312 309 300 286 285 286 290 292 288 257 228 224 191 169 161 163 162 161 153 151 151 149 150 149 152 156 155 159 157 157 154 149 145 136 135 141 135 132 131 135 130 131 137 134 121 112 118 121 117 120 133 140 146 163 174 169 169 169 171 174 184 171 171 176 188 197 194 171 142
273 292 303 288 68 71 100 137 106 4 62 284 291 69 327 287 262 307 255 222 292 310 317 298 303 321 325 319 314 311 305 297 283 267 276 290 280 263 230 226 187 166 165 163 158 151 148 149 150 151 152 152 153 157 155 155 154 154 154 154 148 142 137 131 137 140 140 143 139 142 141 147 144 131 121 125 121 115 112 119 146 165 166 159 161 167 166 176 190 189 186 188 183 186 180 168 186
317 348 324 332 30 67 61 70 94 61 6 254 197 201 106 297 281 283 349 332 314 319 309 304 313 325 328 320 315 307 304 304 301 285 281 282 271 255 226 212 179 151 150 152 149 147 146 152 153 156 156 152 156 158 159 159 159 164 159 158 155 150 148 146 146 147 146 149 153 154 157 154 145 140 134 135 143 141 140 151 165 163 160 170 157 159 187 186 187 184 169 158 170 180 177 174 126
47 17 357 341 1 351 34 351 37 69 272 250 169 184 158 229 294 289 245 277 312 324 315 318 322 329 328 317 316 310 302 301 297 290 294 291 292 265 214 181 163 143 142 146 145 143 146 152 154 150 151 154 157 159 159 159 161 164 161 158 158 158 157 160 159 157 161 158 155 156 153 146 150 147 153 149 157 151 150 158 159 156 166 163 172 175 165 163 147 141 148 165 167 137 129 146 136
34 11 21 23 290 16 334 11 355 256 250 171 164 213 351 236 233 277 298 295 327 318 301 308 322 327 323 317 314 312 306 301 291 293 297 290 275 252 199 152 142 143 146 145 144 144 147 150 154 152 155 156 159 159 163 162 164 167 164 162 156 156 160 160 158 156 161 158 158 157 161 163 158 166 181 175 181 169 161 162 164 166 157 167 156 149 155 153 161 161 168 172 143 168 170 156 157
25 41 13 50 4 21 330 275 222 296 277 247 151 205 234 257 286 249 261 315 309 317 306 314 326 322 321 317 315 313 309 297 294 297 294 280 257 242 179 150 143 140 142 143 142 144 148 151 156 155 152 154 156 159 160 160 164 163 159 155 154 155 162 163 161 159 161 160 163 165 169 171 175 183 177 184 170 162 166 167 158 152 161 167 166 170 167 173 163 163 162 163 156 145 134 138 132
166 145 117 171 133 113 297 267 301 268 276 301 251 76 244 345 276 292 40 289 334 313 328 331 323 322 322 317 316 317 316 315 309 302 303 289 256 208 156 153 146 143 142 139 141 144 146 153 154 151 145 150 155 159 157 158 158 158 155 154 151 153 158 161 157 159 160 161 164 166 170 168 174 175 178 166 160 165 165 164 169 174 179 177 164 159 152 149 147 136 148 135 120 130 128 128 132
75 135 108 53 275 132 193 210 198 297 335 322 282 203 206 218 253 309 14 343 332 337 342 349 337 333 330 326 330 325 316 312 312 302 312 291 254 142 142 141 142 138 141 141 143 146 151 156 159 160 157 156 157 157 160 160 160 158 156 157 155 154 153 151 147 154 162 160 163 168 169 170 169 160 157 159 166 169 173 178 181 190 178 169 168 170 163 157 159 155 137 134 127 124 132 132 142
245 69 33 231 179 116 332 326 287 353 66 255 226 298 285 281 305 323 9 329 338 347 344 352 338 330 327 324 321 321 313 312 322 288 335 299 111 128 134 130 128 128 135 146 151 157 154 151 153 153 147 146 155 159 157 160 159 159 162 157 156 159 163 165 163 161 162 159 162 165 165 160 151 156 155 159 161 170 179 187 187 181 171 168 169 172 162 157 161 156 152 144 135 133 126 135 140
80 48 244 138 98 122 123 270 323 65 164 271 342 295 312 4 332 279 345 332 338 353 345 350 337 332 336 336 327 322 316 315 341 336 312 345 127 121 118 122 127 133 134 134 137 136 140 146 151 150 150 152 156 157 158 162 163 165 163 163 162 164 162 158 155 160 157 153 159 156 150 152 165 158 156 161 161 168 178 183 181 178 172 169 175 165 161 155 151 154 155 139 132 135 122 114 134
156 174 189 73 310 328 316 83 345 345 317 299 288 273 266 195 271 346 344 350 342 345 345 353 345 341 336 333 329 321 319 333 3 360 340 67 61 115 105 110 113 115 117 116 112 116 124 132 141 149 155 158 155 158 159 161 167 166 167 163 161 159 159 155 150 148 152 160 166 166 162 157 144 150 155 161 162 169 174 179 176 177 173 174 164 161 152 154 172 165 155 139 138 143 140 146 161
37 81 43 129 110 183 73 204 182 128 272 347 290 338 292 241 256 321 334 342 338 340 346 353 336 331 328 326 326 315 321 333 17 12 10 47 70 64 111 111 114 114 115 116 114 115 127 134 139 142 140 141 145 154 158 165 170 167 158 152 157 158 157 157 155 156 165 171 172 166 159 156 163 157 165 164 163 167 174 177 176 173 180 173 171 167 162 165 171 162 149 146 150 149 157 167 168
354 45 330 341 26 209 135 284 158 167 210 194 294 321 293 286 209 224 351 324 334 338 331 339 335 329 326 326 322 307 319 28 16 33 39 354 85 69 88 101 105 109 113 119 123 127 130 133 135 137 144 148 157 162 162 165 164 168 160 163 161 159 159 153 151 162 162 166 168 168 165 156 146 168 164 165 169 175 178 178 172 189 184 180 173 167 164 162 169 163 157 150 146 169 171 166 149
166 154 200 173 95 340 351 281 20 38 106 247 347 280 274 282 217 163 43 293 331 6 327 336 332 333 326 326 325 325 30 59 32 47 56 42 52 100 80 89 95 108 116 116 115 119 126 136 137 141 146 160 159 160 167 166 173 168 165 161 159 158 157 155 158 160 166 166 168 172 161 153 165 168 170 171 173 174 176 176 175 183 186 182 177 171 175 172 177 174 173 166 172 179 183 175 168